AirNav   ATP
 
 1572 users online  

F01 Quanah Municipal Airport
Quanah, Texas, USA

GOING TO QUANAH?


FAA INFORMATION EFFECTIVE 11 OCTOBER 2018

Location

FAA Identifier: F01
Lat/Long: 34-16-37.5351N / 099-45-34.8688W
34-16.625585N / 099-45.581147W
34.2770931 / -99.7596858
(estimated)
Elevation: 1602 ft. / 488.3 m (surveyed)
Variation: 08E (1985)
From city: 2 miles SW of QUANAH, TX
Time zone: UTC -5 (UTC -6 during Standard Time)
Zip code: 79252

Airport Operations

Airport use: Open to the public
Activation date: 04/1948
Control tower: no
ARTCC: FORT WORTH CENTER
FSS: FORT WORTH FLIGHT SERVICE STATION
NOTAMs facility: FTW (NOTAM-D service available)
Attendance: DAYLIGHT HOURS
FOR FUEL OR MAINTENANCE NIGHT CALL 970-219-6631.
Wind indicator: lighted
Segmented circle: yes
Lights: MIRL RY 17/35 PRESET LOW INTST; TO INCR INTST ACTVT - CTAF.
Beacon: white-green (lighted land airport)
Operates sunset to sunrise.

Airport Communications

CTAF/UNICOM: 122.7

Nearby radio navigation aids

VOR radial/distance  VOR name  Freq  Var
CDSr092/26.8CHILDRESS VORTAC117.6010E
LTSr221/33.5ALTUS VORTAC109.8005E

Airport Services

Fuel available: 100LL
Parking: hangars and tiedowns
Airframe service: MAJOR
Powerplant service: MAJOR
Bottled oxygen: NONE
Bulk oxygen: NONE

Runway Information

Runway 17/35

Dimensions: 4445 x 60 ft. / 1355 x 18 m
Surface: asphalt, in good condition
Weight bearing capacity: 
Single wheel: 12.5
Runway edge lights: medium intensity
NONSTD MIRL LENSES RWY 17
Runway edge markings: MARKINGS FADED
RUNWAY 17  RUNWAY 35
Latitude: 34-17.042000N34-16.309333N
Longitude: 099-45.554833W099-45.573667W
Elevation: 1592.0 ft.1598.0 ft.
Gradient: 0.3%0.3%
Traffic pattern: leftleft
Runway heading: 173 magnetic, 181 true353 magnetic, 001 true
Markings: nonprecision, in poor conditionnonprecision, in poor condition
Visual slope indicator: 2-light PAPI on left (3.50 degrees glide path)
PAPI OTS INDEFLY.
2-light PAPI on left (3.50 degrees glide path)
PAPI OTS INDEFLY.
Obstructions: 15 ft. road, 550 ft. from runway, 23:1 slope to clearnone

Runway 11/29

Dimensions: 2270 x 70 ft. / 692 x 21 m
Surface: turf, in good condition
RUNWAY 11  RUNWAY 29
Latitude: 34-16.571317N34-16.388883N
Longitude: 099-45.797350W099-45.403700W
Elevation: 1602.0 ft.1599.0 ft.
Gradient: 0.2%0.2%
Traffic pattern: leftleft
Runway heading: 111 magnetic, 119 true291 magnetic, 299 true
Displaced threshold: no360 ft.
DSPLCD THLD UNMARKED.
Touchdown point: yes, no lightsyes, no lights
Obstructions: none15 ft. road, 135 ft. from runway, 9:1 slope to clear
APCH RATIO 33:1 TO +15 FT ROAD AT 495 FT ACROSS APCH AT DSPLCD THLD.

Runway 6/24

Dimensions: 2268 x 70 ft. / 691 x 21 m
Surface: turf, in good condition
RUNWAY 6  RUNWAY 24
Latitude: 34-16.596300N34-16.758767N
Longitude: 099-45.797350W099-45.391183W
Elevation: 1602.0 ft.1594.0 ft.
Gradient: 0.4%0.4% UP
Traffic pattern: leftleft
Runway heading: 056 magnetic, 064 true236 magnetic, 244 true
Displaced threshold: no500 ft.
DSPLCD THLD UNMARKED.
Touchdown point: yes, no lightsyes, no lights
Obstructions: none24 ft. pole, 150 ft. from runway, 150 ft. left of centerline, 6:1 slope to clear
APCH RATIO 34:1 TO +15 FT ROAD AT 510 FT ACROSS APCH AT DSPLCD THLD.

Airport Ownership and Management from official FAA records

Ownership: Publicly-owned
Owner: CITY OF QUANAH
P.O. BOX 629
QUANAH, TX 79252
Phone 940-663-5336
Manager: JOE KING
P.O. BOX 629
QUANAH, TX 79252
Phone 970-219-6631

Airport Operational Statistics

Aircraft based on the field: 18
Single engine airplanes: 17
Multi engine airplanes: 1
    
Aircraft operations: avg 84/week *
75% local general aviation
25% transient general aviation
* for 12-month period ending 17 June 2015

Additional Remarks

WIDTH OF TUR RYS BASED ON THE AREA MOWED AND MAINTAINED; NSTD MARKINGS.

Instrument Procedures

There are no published instrument procedures at F01.

Some nearby airports with instrument procedures:

F05 - Wilbarger County Airport (24 nm E)
O35 - Hollis Municipal Airport (27 nm N)
KCDS - Childress Municipal Airport (28 nm W)
3F6 - Dan E Richards Municipal Airport (30 nm SW)
KAXS - Altus/Quartz Mountain Regional Airport (33 nm NE)
 
Loc | Ops | Rwys | IFR | FBO | Links
Com | Nav | Svcs | Stats | Notes


 
Area around F01 (Quanah Municipal Airport)
 
Road maps at: MapQuest Bing Google
 
Aerial photo
WARNING: Photo may not be current or correct
Aerial photo of F01 (Quanah Municipal Airport)
Photo by Mike Evans
Photo taken 31-Jan-2013
looking north.

Do you have a better or more recent aerial photo of Quanah Municipal Airport that you would like to share? If so, please send us your photo.

 
Sectional chart

 
Airport distance calculator
Flying to Quanah Municipal Airport? Find the distance to fly.

From to F01

Sunrise and sunset
Times for 16-Oct-2018
 Local
(UTC-5)
 Zulu
(UTC)
Morning civil twilight07:2112:21
Sunrise07:4612:46
Sunset19:0300:03
Evening civil twilight19:2800:28

Current date and time
Zulu (UTC)  16-Oct-2018 16:56:04
Local (UTC-5)  16-Oct-2018 11:56:04
 
METAR
KF05 
24nm E 
161635Z AUTO 01007KT 10SM SCT048 OVC065 09/04 A3036 RMK AO1 T00880037
KCDS 
28nm W 
161553Z AUTO 33004KT 10SM OVC075 08/04 A3038 RMK AO2 RAB08E36 SLP290 P0000 T00780039
KAXS 
33nm NE 
161635Z AUTO 36007KT 10SM OVC060 09/03 A3038 RMK AO2 T00930029
KLTS 
34nm NE 
161556Z AUTO 33007KT 10SM OVC065 09/03 A3037 RMK AO2 SLP287 P0000 T00860028 $
KFDR 
39nm E 
161553Z AUTO 35011KT 10SM -RA OVC065 07/04 A3033 RMK AO2 RAB10 SLP272 P0000 T00720039
TAF
KCDS 
28nm W 
161125Z 1612/1712 36008KT 6SM -SHRA BR BKN050 FM162300 VRB05KT P6SM SCT025 BKN050
KLTS 
34nm NE 
161050Z 1610/1715 02006KT 9999 VCSH BKN060 QNH3024INS TEMPO 1610/1614 8000 -SHRA BKN030 BECMG 1622/1623 VRB06KT 9999 NSW SCT060 BKN120 QNH3026INS TX13/1621Z TN05/1612Z
NOTAMs
Click for the latest NOTAMs
NOTAMs are issued by the DoD/FAA and will open in a separate window not controlled by AirNav.

 

 
 

FBO, Fuel Providers, and Aircraft Ground Support

  
 Business Name 
 
 Contact 
 
 Services / Description 
 
Fuel Prices
 
Comments
  
Quanah Municipal Airport 940-663-5336
[web site]
[email]
Airport management, Aviation fuel, Aircraft parking (ramp or tiedown), Hangar leasing / sales, Passenger terminal and lounge, Aircraft rental, Aircraft maintenance, ...

More info about Quanah Municipal Airport
EPIC
100LL
SS $4.25 
 Updated 09-Oct-2018
 
   write
SS=Self service
Update Fuel Prices
 

Would you like to see your business listed on this page?

 If your business provides an interesting product or service to pilots, flight crews, aircraft, or users of the Quanah Municipal Airport, you should consider listing it here.  To start the listing process, click on the button below
 
Add a business
 

Other Pages about Quanah Municipal Airport

www.quanahnet.com/...
 
Update a link
 
Copyright © AirNav, LLC. All rights reserved. Privacy Policy  Contact